Orbital Elements
Epoch 2016 Sept. 9.0 TT = JDT 2457640.5
T 2016 Aug. 30.66920 TT MPCW
q 1.8811304 (2000.0) P Q
z +0.0285258 Peri. 130.26544 +0.83864266 -0.23574131
+/-0.0000000 Node 111.23261 -0.49712427 -0.69967813
e 0.9463392 Incl. 148.21164 +0.22258921 -0.67444536
From 1291 observations 2016 Jan. 14-2017 Mar. 5, mean residual 0".5.
|